Weather Roundup
Issued by NWS

Home | Current Version | Previous Version | Text Only | Print | Product List | Glossary On
Versions: 1 2 3 4 5 6 7 8 9 10 11 12 13 14 15 16 17 18 19 20 21 22 23 24 25 26 27 28 29 30 31 32 33 34 35 36 37 38 39 40 41 42 43 44 45 46 47 48 49 50
000
NZUS93 KARX 280710
HRRWXR

CURRENT HOURLY OBSERVATIONS ACROSS
MUCH OF THE UPPER MISSISSIPPI VALLEY
NATIONAL WEATHER SERVICE LA CROSSE WI
200 AM CDT THU AUG 28 2014


...SOUTHEAST MINNESOTA...


CITY           SKY/WX    TMP DP  RH WIND       PRES   REMARKS
ROCHESTER      PTCLDY    58  56  93 S6        30.15F
ROCHESTER/MAYO FAIR      61  58  89 CALM      30.14F
WINONA         MOCLDY    59  59 100 CALM      30.15S
AUSTIN         CLEAR     57  55  94 CALM      30.13F
ALBERT LEA     PTCLDY    63  57  82 SE5       30.12F
DODGE CENTER   PTCLDY    57  57 100 CALM      30.14F
PRESTON        PTCLDY    59  59 100 CALM      30.16S
OWATONNA       PTCLDY    61  57  88 E3        30.13F
FARIBAULT      PTCLDY    63  55  77 CALM      30.13F
$$

...ELSEWHERE IN MINNESOTA...


CITY           SKY/WX    TMP DP  RH WIND       PRES   REMARKS
MINNEAPOLIS    PTCLDY    64  58  80 SE7       30.13S
INTNL FALLS    CLEAR     49  48  97 SE5       30.10F
DULUTH         MOCLDY    57  53  86 CALM      30.14F
RED WING       CLEAR     61  55  82 CALM      30.13S
REDWOOD FALLS  PTCLDY    62  58  86 SE7       30.09F
MANKATO        CLEAR     63  55  77 E7        30.11F
WORTHINGTON    CLOUDY    64  63  94 E6        30.10F
FAIRMONT       MOCLDY    61  57  88 SE6       30.10F
$$

...SOUTHWEST WISCONSIN...


CITY           SKY/WX    TMP DP  RH WIND       PRES   REMARKS
LA CROSSE      CLEAR     61  59  93 CALM      30.14F
PRAIRIE DU CHI PTCLDY    60  58  95 CALM      30.12F FOG
BOSCOBEL       FOG       61  59  93 CALM      30.14F VSB 1/2
LONE ROCK      FOG       63  59  87 S5        30.14F VSB 3/4
PLATTEVILLE    PTCLDY    64  60  88 E7        30.14F
FORT MC COY    CLEAR     55  54  95 CALM      30.16F
CAMP DOUGLAS   PTCLDY    55  55 100 NW2       30.15F FOG
VIROQUA        FAIR      59  59 100 E3        30.15F
WIS DELLS      PTCLDY    58  56  93 CALM      30.15S
$$

...ELSEWHERE IN WISCONSIN...


CITY           SKY/WX    TMP DP  RH WIND       PRES   REMARKS
MILWAUKEE      CLEAR     62  56  80 CALM      30.15F
MADISON        CLEAR     60  58  92 NE3       30.15F
GREEN BAY      MOCLDY    55  54  96 E6        30.17R
EAU CLAIRE     CLEAR     56  55  97 NE6       30.15S
BLACK RVR FLS  FAIR      52  52 100 CALM      30.16S
MEDFORD        CLEAR     50  48  92 E3        30.18S
WAUSAU         CLEAR     56  48  74 NE6       30.17S
WIS RAPIDS     CLEAR     55  52  89 CALM      30.18R
MARSHFIELD     CLEAR     57  50  77 NE8       30.17S
RICE LAKE      CLEAR     53  52  95 CALM      30.18S
$$

...NORTHEAST IOWA...


CITY           SKY/WX    TMP DP  RH WIND       PRES   REMARKS
WATERLOO       CLOUDY    64  61  90 E5        30.10F
DUBUQUE        CLEAR     63  61  93 CALM      30.14S
DECORAH        CLEAR     59  59 100 CALM      30.13F
MASON CITY     MOCLDY    63  61  93 E6        30.12F
CHARLES CITY   CLOUDY    63  59  88 E7        30.13F
OELWEIN        CLOUDY    63  61  94 NE5       30.13F
$$

...ELSEWHERE IN IOWA...


CITY           SKY/WX    TMP DP  RH WIND       PRES   REMARKS
DES MOINES     MOCLDY    71  67  87 E5        30.07F
IOWA CITY      CLOUDY    70  62  76 E6        30.09F
FORT DODGE     CLOUDY    66  63  88 SE5       30.09F
MARSHALLTOWN   CLOUDY    66  63  90 E6        30.09F
CEDAR RAPIDS   CLOUDY    66  62  87 E7        30.09F
$$

...NORTHERN ILLINOIS...


CITY           SKY/WX    TMP DP  RH WIND       PRES   REMARKS
CHICAGO-OHARE  MOCLDY    68  58  70 NE3       30.14R
DUPAGE         CLOUDY    65  61  87 CALM      30.14S
CHICAGO-MIDWAY MOCLDY    71  59  65 E5        30.13S
MOLINE         PTCLDY    67  62  84 E5        30.10F
ROCKFORD       CLOUDY    65  62  90 E5        30.16S
STERLING       PTCLDY    63  61  94 NE6       30.13S
PEORIA         MOCLDY    72  61  68 E10       30.09S
$$

NOTE: "FAIR" INDICATES FEW OR NO CLOUDS BELOW 12,000 FEET WITH NO
SIGNIFICANT WEATHER AND/OR OBSTRUCTIONS TO VISIBILITY. WIND
SPEEDS ARE IN MILES-PER-HOUR.



USA.gov is the U.S. government's official web portal to all federal, state and local government web resources and services.